Regional Weather Roundup
Issued by NWS

Home | Current Version | Previous Version | Text Only | Print | Product List | Glossary Off
Versions: 1 2 3 4 5 6 7 8 9 10 11 12 13 14 15 16 17 18 19 20 21 22 23 24 25 26 27 28 29 30 31 32 33 34 35 36 37 38 39 40 41 42 43 44 45 46 47 48 49 50

000
ASUS43 KOAX 231610
RWRNE

WEATHER ROUNDUP FOR NEBRASKA
NATIONAL WEATHER SERVICE OMAHA NE
1100 AM CDT SUN JUL 23 2017

NOTES: SATELLITE DATA IS BEING USED TO AUGMENT CLOUD COVER ABOVE
       12000 FEET.
       "FAIR" INDICATES FEW OR NO CLOUDS BELOW 12,000 FEET WITH NO
       SIGNIFICANT WEATHER AND/OR OBSTRUCTIONS TO VISIBILITY.


NEZ001>004-019>022-054>056-231700-
NEBRASKA PANHANDLE

CITY           SKY/WX    TMP DP  RH WIND       PRES   REMARKS
SCOTTSBLUFF    SUNNY     80  54  40 E9        30.13F
ALLIANCE       SUNNY     82  51  34 CALM      30.13F
CHADRON        SUNNY     78  49  35 VRB5      30.11S
GORDON         FAIR      77  54  44 SE9       30.13S
KIMBALL        SUNNY     83  52  34 SW8       30.20S
SIDNEY         SUNNY     87  41  19 SW13      30.17S
$$

NEZ057>060-069>072-079>082-231700-
SOUTHWEST NEBRASKA

CITY           SKY/WX    TMP DP  RH WIND       PRES   REMARKS
NORTH PLATTE   SUNNY     84  59  42 NE5       30.09F
IMPERIAL       SUNNY     82  57  42 CALM      30.12S
LEXINGTON      SUNNY     78  66  65 CALM      30.07S
MCCOOK         SUNNY     85  65  51 N6        30.08S
OGALLALA       SUNNY     83  52  33 NE6       30.13S
$$

NEZ005>010-023>029-035>040-094-231700-
NORTH CENTRAL NEBRASKA

CITY           SKY/WX    TMP DP  RH WIND       PRES   REMARKS
VALENTINE      SUNNY     84  48  28 NE8       30.09F
AINSWORTH      SUNNY     78  56  47 E7        30.10S
BROKEN BOW     SUNNY     82  63  52 NE10      30.08R
O`NEILL        SUNNY     77  60  57 NE7       30.07S
ORD            SUNNY     81  56  42 NE10      30.05R
THEDFORD       SUNNY     82  55  39 E8        30.11F
$$

NEZ041-046>049-061>064-073>077-083>087-231700-
SOUTH CENTRAL NEBRASKA

CITY           SKY/WX    TMP DP  RH WIND       PRES   REMARKS
GRAND ISLAND   SUNNY     80  66  62 W5        30.04R
AURORA         SUNNY     80  69  69 SW6       30.02S
HASTINGS       SUNNY     81  70  69 W6        30.04F
HEBRON         SUNNY     84  70  62 N5        30.00S
HOLDREGE       SUNNY     79  67  66 N3        30.06F
KEARNEY        SUNNY     83  63  50 W5        30.06S
YORK           SUNNY     79  73  83 SW5       30.01S
$$

NEZ011>018-030>034-042>045-231700-
NORTHEAST NEBRASKA

CITY           SKY/WX    TMP DP  RH WIND       PRES   REMARKS
NORFOLK        SUNNY     84  55  36 N15       30.02R
ALBION         SUNNY     82  59  46 NE8       30.04R
BLAIR          SUNNY     82  69  64 CALM      29.98R
COLUMBUS       SUNNY     81  66  60 NE3       30.01R
FREMONT        SUNNY     83  66  57 CALM      29.99S
TEKAMAH        SUNNY     82  66  58 NE6       29.97R
WAYNE          SUNNY     80  62  53 N9        30.01R
$$

NEZ050>053-065>068-078-088>093-231700-
SOUTHEAST NEBRASKA

CITY           SKY/WX    TMP DP  RH WIND       PRES   REMARKS
LINCOLN        SUNNY     82  71  69 NW6       29.99S
OMAHA EPPLEY   SUNNY     84  68  58 CALM      29.96F
BEATRICE       MOSUNNY   84  75  73 NW6       29.98S HX  92
FALLS CITY     CLOUDY    80  76  87 NW7       29.95S
NEBRASKA CITY  PTSUNNY   82  79  92 NW3       29.97S HX  91
PLATTSMOUTH    SUNNY     78  75  92 CALM      29.97F FOG
$$

NEZ044-045-051>053-067-231700-
OMAHA AREA

CITY           SKY/WX    TMP DP  RH WIND       PRES   REMARKS
OMAHA EPPLEY   SUNNY     84  68  58 CALM      29.96F
BLAIR          SUNNY     82  69  64 CALM      29.98R
FREMONT        SUNNY     83  66  57 CALM      29.99S
MILLARD        SUNNY     84  71  63 CALM      29.98R
OFFUTT AFB     SUNNY     83  71  68 W7        29.96F
PLATTSMOUTH    SUNNY     78  75  92 CALM      29.97F FOG
WAHOO          FAIR      80  69  67 CALM      29.99R
$$



USA.gov is the U.S. government's official web portal to all federal, state and local government web resources and services.